Regional Weather Roundup
Issued by NWS

Home | Current Version | Previous Version | Text Only | Print | Product List | Glossary On
Versions: 1 2 3 4 5 6 7 8 9 10 11 12 13 14 15 16 17 18 19 20 21 22 23 24 25 26 27 28 29 30 31 32 33 34 35 36 37 38 39 40 41 42 43 44 45 46 47 48 49 50
000
ASUS45 KBOU 302207
RWRCO

WEATHER ROUNDUP FOR COLORADO
NATIONAL WEATHER SERVICE DENVER/BOULDER CO
400 PM MDT SAT MAY 30 2015

NOTE: "FAIR" INDICATES FEW OR NO CLOUDS BELOW 12000 FEET WITH NO
SIGNIFICANT WEATHER AND/OR OBSTRUCTIONS TO VISIBILITY.

COZ001>005-013-030-031-302300-
...NORTHWEST COLORADO...

CITY           SKY/WX    TMP DP  RH WIND       PRES   REMARKS
CRAIG          MOSUNNY   73  37  27 W6        30.21F
HAYDEN         SUNNY     70  36  28 W8        30.23F
MEEKER         MOSUNNY   75  36  24 W9        30.22F
MOUNT WERNER   NOT AVBL
STEAMBOAT SPGS MOSUNNY   68  34  28 W8        30.25F
WALDEN         SUNNY     63  23  22 SW9G20    30.32S
$$

COZ006>008-011-302300-
...WEST CENTRAL VALLEYS...

CITY           SKY/WX    TMP DP  RH WIND       PRES   REMARKS
GRAND JUNCTION PTSUNNY   80  38  22 MISG      30.14F
MONTROSE       MOSUNNY   78  33  19 NW9       30.22F
EAGLE          MOSUNNY   81  36  19 S15       30.24F
RIFLE          SUNNY     74  36  25 W5        30.17F
DELTA          MOSUNNY   81  32  16 SW6       30.17F
NUCLA          MOSUNNY   79  30  17 NW8       30.25F
$$

COZ017>023-064>068-302300-
...SOUTHWEST COLORADO...

CITY           SKY/WX    TMP DP  RH WIND       PRES   REMARKS
DURANGO        MOSUNNY   76  31  19 W12G17    30.24F
CORTEZ         MOSUNNY   78  30  17 VRB3      30.22F
PAGOSA SPRINGS MOSUNNY   72  23  15 SW10G17   30.31F
TELLURIDE      MOSUNNY   64  23  20 W6        30.42F
WOLF CREEK PAS NOT AVBL
$$

COZ009-010-012-014-032>034-037-058>063-302300-
...CENTRAL COLORADO...

CITY           SKY/WX    TMP DP  RH WIND       PRES   REMARKS
ASPEN          MOSUNNY   68  34  28 VRB6      30.30F
BUENA VISTA    MOSUNNY   68  23  18 S5        30.28F
COPPER MTN     MOSUNNY   48  21  34 SW7       30.56R
BERTHOUD PASS  PTSUNNY   39  32  75 W12G28    30.59S
COTTONWOOD PAS MOSUNNY   68  12  11 N8        30.41F
GUNNISON       MOSUNNY   68  25  19 W17       30.32F
KREMMLING      PTSUNNY   66  28  24 CALM      30.28F
LEADVILLE      MOSUNNY   57  21  24 W7G30     30.41F
MONARCH PASS   MOSUNNY   46  23  39 SW16G30   30.65F
SALIDA         MOSUNNY   75  18  11 W9G18     30.33F
SUNLIGHT       MOSUNNY   55  30  38 CALM      30.53S
WILKERSON PASS CLOUDY    55  21  26 SW5       30.53S
$$

COZ069>075-302300-
...SAN LUIS VALLEY/SANGRE DE CRISTO MOUNTAINS...

CITY           SKY/WX    TMP DP  RH WIND       PRES   REMARKS
ALAMOSA        SUNNY     70  25  18 CALM      30.28F
LA VETA PASS   PTSUNNY  N/A N/A N/A MISG      30.46F
SAGUACHE       SUNNY     68  32  26 SW7       30.29F
$$

COZ035-036-038>040-302300-
...NORTHERN COLORADO FRONT RANGE...

CITY           SKY/WX    TMP DP  RH WIND       PRES   REMARKS
DENVER INTL AP MOSUNNY   71  45  39 E13       30.20F
DMNS CITY PARK   N/A     73  44  35 SE8G15    30.18F
AURORA         MOSUNNY   72  44  36 E5        30.21F
FRONT RANGE AP MOSUNNY   72  46  40 E6        30.22F
ERIE MUNI ARPT MOSUNNY   73  42  33 E7        30.18F
BOULDER MUN AP MOSUNNY   72  43  35 E5        30.18F
CENTENNIAL     MOSUNNY   71  41  33 E9        30.21F
BROOMFIELD     MOSUNNY   72  41  33 SE3       30.21F
FORT COLLINS   MOSUNNY   72  48  43 SE9       30.19F
LONGMONT       MOSUNNY   75  45  34 CALM      30.20F
$$

COZ041-046-047-076>085-087-088-302300-
...PIKES PEAK/PALMER DIVIDE AND SOUTHERN FOOTHILLS...

CITY           SKY/WX    TMP DP  RH WIND       PRES   REMARKS
COLO. SPRINGS  PTSUNNY   65  47  52 SE10G18   30.27F
A. F. ACADEMY  MOSUNNY   64  46  50 S13G18    30.27S
ELLICOTT       MOSUNNY  N/A N/A N/A S9        30.26F
FALCON         MOSUNNY   63  43  49 SE8       30.31F
FORT CARSON    NOT AVBL
LIMON          MOSUNNY   67  49  52 SE8       30.24F
MONUMENT HILL  MOSUNNY   64  46  52 N13       30.29F
TRINIDAD       SUNNY     71  49  45 E13       30.23F
$$

COZ042>045-048>051-090-091-302300-
...NORTHEAST COLORADO...

CITY           SKY/WX    TMP DP  RH WIND       PRES   REMARKS
GREELEY ARPT   SUNNY     70  50  49 SE12G20   30.19F
AKRON          SUNNY     65  49  56 SE9       30.23F
BURLINGTON     SUNNY     63  47  55 NE5       30.25F
WRAY           SUNNY     68  46  44 CALM      30.23F
STERLING       SUNNY     68  50  52 SE10      30.19F
HOLYOKE        SUNNY     68  43  40 S6        30.23F
FORT MORGAN    SUNNY     69  47  44 E15       30.21F
$$

COZ086-089-092>099-302300-
...SOUTHEAST COLORADO...

CITY           SKY/WX    TMP DP  RH WIND       PRES   REMARKS
PUEBLO         SUNNY     68  51  54 E10G17    30.20F
LA JUNTA       SUNNY     70  47  43 SE5       30.22F
LAMAR          MOSUNNY   70  49  47 NE9       30.21F
SPRINGFIELD      N/A     68  47  46 CALM      30.23F
$$


USA.gov is the U.S. government's official web portal to all federal, state and local government web resources and services.